Weather History for KMSL - May, 2013

Change the Weather History Date:

Monday, May 20, 2013

  Actual Average Record
Temperature  
Mean Temperature 77 °F 71 °F  
Max Temperature 87 °F 82 °F 95 °F (1941)
Min Temperature 67 °F 60 °F 42 °F (2002)
Degree Days  
Heating Degree Days 0 1  
Month to date heating degree days 55 27  
Since 1 July heating degree days 2954 3100  
Cooling Degree Days 12 7  
Month to date cooling degree days 83 94  
Year to date cooling degree days 137 159  
Growing Degree Days 26 (Base 50)    
Moisture  
Dew Point 67 °F    
Average Humidity 73    
Maximum Humidity 93    
Minimum Humidity 53    
Precipitation  
Precipitation 0.00 in 0.16 in 2.94 in (1983)
Month to date precipitation 4.06 3.30  
Year to date precipitation 24.83 21.68  
Snow  
Snow 0.00 in - - ()
Month to date snowfall 0.0  
Since 1 July snowfall T  
Snow Depth 0.00 in    
Sea Level Pressure  
Sea Level Pressure 30.00 in    
Wind  
Wind Speed 6 mph (SSE)    
Max Wind Speed 12 mph    
Max Gust Speed 16 mph    
Visibility 8 miles    
Events      
T = Trace of Precipitation, MM = Missing Value Source: NWS Daily Summary

Daily Weather History Graph

Daily Weather History Graph

Search for Another Location

Airport or City:

Trip Planner

Search our weather history database for the weather conditions in past years. The results will help you decide how hot, cold, wet, or windy it might be!

Date:

Astronomy

May. 20, 2013 Rise Set
Actual Time 5:43 AM CDT 7:50 PM CDT
Civil Twilight 5:15 AM CDT 8:18 PM CDT
Nautical Twilight 4:40 AM CDT 8:53 PM CDT
Astronomical Twilight 4:03 AM CDT 9:30 PM CDT
Moon 3:08 PM CDT (5/20) 2:26 AM CDT (5/20)
Length of Visible Light 15h 03m
Length of Day
14h 06m
Waxing Gibbous, 75% of the Moon is Illuminated
May 20
Waxing Gibbous
May 24
Full
May 31
Last Quarter
Jun 8
New
Jun 16
First Quarter

Hourly Weather History & Observations

Time (CDT) Temp. Heat Index Dew Point Humidity Pressure Visibility Wind Dir Wind Speed Gust Speed Precip Events Conditions
12:53 AM 71.1 °F - 66.0 °F 84% 29.97 in 7.0 mi South 4.6 mph - N/A   Clear
1:53 AM 70.0 °F - 66.0 °F 87% 29.96 in 7.0 mi Calm Calm - N/A   Clear
3:53 AM 66.9 °F - 64.0 °F 90% 29.96 in 3.0 mi ESE 4.6 mph - N/A   Clear
4:53 AM 68.0 °F - 64.0 °F 87% 29.98 in 5.0 mi SE 4.6 mph - N/A   Scattered Clouds
5:04 AM 68.0 °F - 64.4 °F 88% 30.00 in 4.0 mi SE 3.5 mph - N/A   Mostly Cloudy
5:53 AM 69.1 °F - 66.0 °F 90% 30.00 in 3.0 mi SE 3.5 mph - N/A   Overcast
6:17 AM 69.8 °F - 66.2 °F 88% 30.02 in 3.0 mi East 3.5 mph - N/A   Scattered Clouds
6:53 AM 70.0 °F - 66.0 °F 87% 30.01 in 3.0 mi ESE 3.5 mph - N/A   Clear
7:02 AM 71.6 °F - 66.2 °F 83% 30.03 in 3.0 mi ESE 3.5 mph - N/A   Partly Cloudy
7:36 AM 71.6 °F - 68.0 °F 88% 30.04 in 4.0 mi SE 3.5 mph - N/A   Mostly Cloudy
7:53 AM 72.0 °F - 68.0 °F 87% 30.04 in 4.0 mi SSE 4.6 mph - N/A   Overcast
8:39 AM 75.2 °F - 68.0 °F 78% 30.06 in 6.0 mi SW 4.6 mph - N/A   Haze
9:53 AM 77.0 °F - 68.0 °F 74% 30.04 in 8.0 mi SW 5.8 mph - N/A   Overcast
10:53 AM 78.1 °F - 68.0 °F 71% 30.04 in 8.0 mi SSW 8.1 mph - N/A   Overcast
11:00 AM 78.8 °F - 68.0 °F 69% 30.06 in 8.0 mi SW 6.9 mph - N/A   Overcast
11:15 AM 78.8 °F - 68.0 °F 69% 30.06 in 9.0 mi Calm Calm - N/A   Overcast
11:50 AM 78.8 °F - 68.0 °F 69% 30.05 in 10.0 mi South 6.9 mph - N/A   Overcast
11:53 AM 80.1 °F 82.9 °F 69.1 °F 69% 30.04 in 10.0 mi SSW 6.9 mph - N/A   Overcast
12:53 PM 81.0 °F 84.1 °F 69.1 °F 67% 30.02 in 9.0 mi SSE 8.1 mph - N/A   Mostly Cloudy
1:53 PM 84.0 °F 88.4 °F 70.0 °F 63% 30.00 in 10.0 mi SE 9.2 mph - N/A   Scattered Clouds
2:53 PM 84.9 °F 87.6 °F 66.9 °F 55% 29.99 in 10.0 mi South 8.1 mph - N/A   Scattered Clouds
3:01 PM 84.2 °F 87.3 °F 68.0 °F 58% 30.01 in 10.0 mi SSW 10.4 mph - N/A   Scattered Clouds
3:53 PM 87.1 °F 90.6 °F 68.0 °F 53% 29.97 in 10.0 mi South 8.1 mph - N/A   Scattered Clouds
4:53 PM 86.0 °F 89.4 °F 68.0 °F 55% 29.96 in 10.0 mi South 6.9 mph 16.1 mph N/A   Partly Cloudy
5:53 PM 84.9 °F 87.6 °F 66.9 °F 55% 29.94 in 10.0 mi SSW 8.1 mph - N/A   Clear
6:53 PM 82.9 °F 86.5 °F 69.1 °F 63% 29.93 in 10.0 mi SSE 5.8 mph - N/A   Clear
7:49 PM 80.6 °F 83.9 °F 69.8 °F 70% 29.95 in 10.0 mi SSE 8.1 mph - N/A   Partly Cloudy
7:53 PM 80.1 °F 82.9 °F 69.1 °F 69% 29.93 in 10.0 mi SSE 8.1 mph - N/A   Partly Cloudy
9:53 PM 75.0 °F - 68.0 °F 79% 29.95 in 10.0 mi SSE 3.5 mph - N/A   Clear
10:53 PM 73.9 °F - 68.0 °F 82% 29.95 in 10.0 mi SE 6.9 mph - N/A   Clear
11:53 PM 73.0 °F - 66.9 °F 81% 29.96 in 9.0 mi SSE 6.9 mph - N/A   Clear